Regional Weather Roundup
Issued by NWS

Home | Current Version | Previous Version | Text Only | Print | Product List | Glossary Off
Versions: 1 2 3 4 5 6 7 8 9 10 11 12 13 14 15 16 17 18 19 20 21 22 23 24 25 26 27 28 29 30 31 32 33 34 35 36 37 38 39 40 41 42 43 44 45 46 47 48 49 50

000
ASUS45 KSLC 162310
RWRUT

UTAH REGIONAL WEATHER ROUNDUP
NATIONAL WEATHER SERVICE SALT LAKE CITY UT
400 PM MST SAT DEC 16 2017

UTZ001>011-023>025-170000-

NORTHERN UTAH

CITY           SKY/WX    TMP DP  RH WIND       PRES   REMARKS
BRIGHAM CITY   CLOUDY    32  27  82 N15       29.94R WCI  22
HILL AFB       MIX PCPN  30  28  89 NW8       29.92R WCI  23
LOGAN          LGT SNOW  32  27  81 N9        29.93R WCI  24
OGDEN          LGT SNOW  31  28  89 NW8       29.92R FOG     WCI  23
SALT LAKE CITY CLOUDY    35  31  85 W9        29.93R WCI  28
TOOELE VALLEY  LGT SNOW  32  32 100 W7        29.96R WCI  26
WENDOVER       MOCLDY    38  18  44 N17G26    29.96R WCI  28
HEBER CITY     CLOUDY    34  25  69 W8        29.81R WCI  27
WEST JORDAN    CLOUDY    31  31 100 NW7       29.94R WCI  24

$$

UTZ011>015-024>027-170000-

CENTRAL/NORTHEAST UTAH

CITY           SKY/WX    TMP DP  RH WIND       PRES   REMARKS
PROVO AIRPORT  CLOUDY    34  28  79 W16       29.91R WCI  24
MOAB/CANYONLAN CLOUDY    40  11  30 CALM      29.76S
DELTA          CLOUDY    32  30  93 N9        29.91R WCI  24
PRICE          PTCLDY    40  10  29 CALM      29.76R
RICHFIELD      PTSUNNY   39  16  38 N6G15     29.84R WCI  35
ROOSEVELT      CLOUDY    39  14  35 E3        29.78R
VERNAL         CLOUDY    39  13  34 CALM      29.76R

$$

UTZ013>016-019>022-027-170000-

SOUTHERN UTAH

CITY           SKY/WX    TMP DP  RH WIND       PRES   REMARKS
BRYCE CANYON   MOSUNNY   40   0  18 NW14      29.76R WCI  32
CEDAR CITY     CLOUDY    39  20  46 N8        29.81R WCI  33
MILFORD        CLOUDY    35  26  69 N21       29.87R WCI  24
ST GEORGE      CLOUDY    52   9  17 S7        29.76R
HANKSVILLE     MOCLDY    39  12  33 E3        29.80S
KANAB          SUNNY     52   1  12 SW9       29.78
BLANDING         N/A     40   7  25 SW3       29.84S

$$

REGIONAL REPORTS     COLORADO/ARIZONA

CITY           SKY/WX    TMP DP  RH WIND       PRES   REMARKS
CRAIG, CO      CLOUDY    28  17  63 CALM      29.76R
GRAND JUNCTION CLOUDY    39  11  31 W3        29.76S
RIFLE, CO      CLOUDY    38  10  31 CALM      29.75S
MONTROSE, CO   CLOUDY    40   8  26 N6        29.77R
CORTEZ, CO     CLOUDY    42  11  28 SW6       29.77S
COLORADO CITY    N/A     52   7  16 W6        29.78R
PAGE, AZ       CLOUDY    43  12  28 CALM      29.76R
GRAND CANYON   MOSUNNY   46   6  19 SW12G21   29.77S
KINGMAN, AZ    PTSUNNY   57  11  16 SW13      29.73S
FLAGSTAFF, AZ  MOSUNNY   41   6  23 SW13      29.79R

$$

REGIONAL REPORTS    NEVADA/IDAHO/WYOMING

CITY           SKY/WX    TMP DP  RH WIND       PRES   REMARKS
LAS VEGAS, NV  PTSUNNY   60  15  17 E3        29.73S
ELY, NY        CLOUDY    29  24  82 N14       29.91R WCI  18
ELKO, NV       MOSUNNY   32  16  51 N12       30.01R WCI  23
POCATELLO, ID  LGT SNOW  27  24  89 W16       30.00R FOG     WCI  15
BURLEY, ID     CLOUDY    32  25  75 W9        30.01R WCI  24
FORT BRIDGER,  CLOUDY    32  27  81 NW8       29.83R WCI  25
EVANSTON, WY   LGT SNOW  27  26  96 N13       29.82R FOG     WCI  16
ROCK SPRINGS,  CLOUDY    34  25  69 N9        29.78R WCI  27

$$



USA.gov is the U.S. government's official web portal to all federal, state and local government web resources and services.